Regional Weather Roundup
Issued by NWS Bismarck, ND

Home | Current Version | Previous Version | Text Only | Print | Product List | Glossary On
Versions: 1 2 3 4 5 6 7 8 9 10 11 12 13 14 15 16 17 18 19 20 21 22 23 24 25 26 27 28 29 30 31 32 33 34 35 36 37 38 39 40 41 42 43 44 45 46 47 48 49 50
000
ASUS43 KBIS 171510
RWRBIS

NWR BROADCAST TEXT
NATIONAL WEATHER SERVICE BISMARCK ND
900 AM CST SAT FEB 17 2018

NOTE: "FAIR" INDICATES FEW OR NO CLOUDS BELOW 12,000 FEET WITH NO
SIGNIFICANT WEATHER AND/OR OBSTRUCTIONS TO VISIBILITY.


CITY           SKY/WX    TMP DP  RH WIND       PRES   REMARKS
WILLISTON      FAIR       9   4  80 W13       29.96R WCI  -7
MINOT          PTSUNNY   12   6  77 W8        29.90R WCI   0
MINOT AFB      PTCLDY    13   7  78 W10       29.90F WCI   0
BISMARCK       FAIR      18  13  80 NW8       29.96R WCI   8
DICKINSON      FAIR      11   7  84 W13       29.92R WCI  -4
GARRISON         N/A      9   5  84 W9        29.93R WCI  -4
HETTINGER ARPT SUNNY     10   6  84 NW12      29.96R WCI  -5
JAMESTOWN      FAIR      16  10  77 NW17      29.88R WCI   0
CARRINGTON     FAIR      14   9  79 NW22      29.90R WCI  -4
HAZEN            N/A     14  12  92 SW3       29.98R
LINTON           N/A     16  14  93 NW7       29.96R WCI   6
MANDAN         PTSUNNY   14  12  92 NW12      29.94R WCI   0
OAKES            N/A     18  14  86 W9        29.90R WCI   6
RUGBY          FAIR       3   0  85 NW13      29.89R WCI -14
STANLEY        CLOUDY     5   3  92 W9        29.92R WCI  -9
TIOGA          PTSUNNY   10  10 100 W14       29.91S WCI  -5
WATFORD CITY   FAIR      10   7  85 W14       29.96R WCI  -5
$$

CITY           SKY/WX    TMP DP  RH WIND       PRES   REMARKS
GRAND FORKS    FAIR      15  10  80 W7        29.86R WCI   5
GRAND FORKS AF SUNNY     15   8  72 NW13      29.85R WCI   2
DEVILS LAKE    FAIR       9   4  80 W18       29.86R WCI -10
FARGO          FAIR      17  12  80 W13       29.87R WCI   4
CANDO          FAIR       7   5  92 W13       29.89R WCI  -9
CAVALIER         N/A     12   9  85 NW9       29.83R WCI   0
GRAFTON        FAIR      14   9  79 W8        29.86R WCI   3
GWINNER          N/A     21  16  79 W9        29.89R WCI  11
LANGDON        FAIR       9   7  92 W20       29.81R WCI -11
ROLLA          FAIR       9  -2  61 NW13      29.83R WCI  -7
WALHALLA       FAIR      12   7  79 W16G25    29.82S WCI  -4
$$

CITY           SKY/WX    TMP DP  RH WIND       PRES   REMARKS
ABERDEEN       PTSUNNY   21  17  84 NW7       29.94R WCI  12
MOBRIDGE       MOSUNNY   24  18  77 NW14      29.91R WCI  12
BUFFALO          N/A     14   9  80 NW21      29.88R WCI  -4
RAPID CITY     MOSUNNY   29  20  69 N13       29.96R WCI  19
GLASGOW        MOCLDY     2  -2  83 W9        30.00R WCI -13
SIDNEY         CLEAR      8   3  80 NW12      30.01R WCI  -7
WOLF POINT     CLEAR      3  -1  83 SW8       30.03R WCI -10
GLENDIVE       PTCLDY    12   5  73 W10       30.01R WCI  -1
MILES CITY     CLOUDY    15  10  80 CALM      30.03S
BAKER          PTCLDY    10   9  95 W13       29.98S WCI  -5
$$

CITY           SKY/WX    TMP DP  RH WIND       PRES   REMARKS
BILLINGS       CLOUDY    19  15  84 NE9       29.97R WCI   8
GREAT FALLS    CLOUDY    14  10  84 SE6       29.90F WCI   5
REGINA         PTCLDY     1  -4  78 W17       29.89R WCI -19
ESTEVAN        MOCLDY    14   9  79 W13       29.88F WCI   0
$$





USA.gov is the U.S. government's official web portal to all federal, state and local government web resources and services.